SCP
0 0 0 0 0 0 0 0 0 0 0 0 0 0 0 0 0 0 0 0 0 0 0 0 0 0 0 0 0 0 0 0 0 0 -0 -0 -0 0 0 0 0 0 0
0 0 0 0 0 0 0 0 0 0 0 0 0 0 0 0 0 0 0 0 0 0 0 0 0 0 0 0 0 0 0 0 0 0 0 -0 -0 0 0 0 0 0 0
0 0 0 0 0 0 0 0 0 0 0 0 0 0 0 0 0 0 0 0 0 0 0 0 0 0 0 0 0 0 0 0 0 0 0 0 0 0 0 0 0 0 -0
0 0 0 0 0 0 0 0 0 0 0 0 0 0 0 0 0 0 0 0 0 0 0 0 0 0 0 0 0 0 0 0 0 0 0 0 0 0 0 0 -0 -0 0
0 0 0 0 0 0 0 0 0 0 0 0 0 0 0 0 0 0 0 0 0 0 0 0 0 0 0 0 0 0 0 0 0 0 0 0 0 0 0 0 0 -0 0
0 0 0 0 0 0 0 0 0 0 0 0 0 0 0 0 0 0 0 0 0 0 0 0 0 0 0 0 0 0 0 0 0 0 0 0 0 0 0 0 0 0 0
0 -0 0 0 0 0 0 0 0 0 0 0 0 0 0 0 0 0 0 0 0 0 0 0 0 0 0 0 0 0 0 0 0 0 0 0 0 0 0 0 0 0 0
0 0 0 0 0 0 0 0 0 0 0 0 0 0 0 0 0 0 0 0 0 0 0 0 0 0 0 0 0 0 0 0 0 0 0 0 0 0 0 0 0 0 0
0 0 0 0 0 0 0 0 0 0 0 0 0 0 0 0 0 0 0 0 0 0 0 0 0 0 0 0 0 0 0 0 0 0 0 0 0 0 0 0 0 0 0
0 0 0 0 0 0 0 0 0 0 0 0 0 0 0 0 0 0 0 0 0 0 0 0 0 0 0 0 0 0 0 0 0 0 0 0 0 0 0 0 0 0 0
0 0 0 0 0 0 0 0 0 0 0 0 0 0 0 0 0 0 0 0 0 0 0 0 0 0 0 0 0 0 0 0 0 0 0 0 0 0 0 0 0 0 0
0 0 0 0 0 0 0 0 0 0 0 0 0 0 0 0 0 0 0 0 0 0 0 0 0 0 0 0 0 0 0 0 0 0 0 0 0 0 0 0 0 0 0
0 0 0 0 0 0 0 0 0 0 0 0 0 0 0 0 0 0 0 0 0 0 0 0 0 0 0 0 0 0 0 0 0 0 0 0 0 0 0 0 0 0 0
0 0 0 0 0 0 0 0 0 0 0 0 0 0 0 0 0 0 0 0 0 0 0 0 0 0 0 0 0 0 0 0 0 0 0 0 0 0 0 0 0 0 0
0 0 0 0 0 0 0 0 0 0 0 0 0 0 0 0 0 0 0 0 0 0 0 0 0 0 0 0 0 0 0 0 0 0 0 0 0 0 0 0 0 0 0
0 0 0 0 0 0 0 0 0 0 0 0 0 0 0 0 0 0 0 0 0 0 0 0 0 0 0 0 0 0 0 0 0 0 0 0 0 0 0 0 0 0 0
0 0 0 0 0 0 0 0 0 0 0 0 0 0 0 0 0 0 0 0 0 0 0 0 0 0 0 0 0 0 0 0 0 0 0 0 0 0 0 0 0 0 0
0 0 0 0 0 0 0 0 0 0 0 0 0 0 0 0 0 0 0 0 0 0 0 0 0 0 0 0 0 0 0 0 0 0 0 0 0 0 0 0 0 0 0
0 0 0 0 0 0 0 0 0 0 0 0 0 0 0 0 0 0 0 0 0 0 0 0 0 0 0 0 0 0 0 0 0 0 0 0 0 0 0 0 0 0 0
0 0 0 0 0 0 0 0 0 0 0 0 0 0 0 0 0 0 0 0 0 0 0 0 0 0 0 0 0 0 0 0 0 0 0 0 0 0 0 0 0 0 0
0 0 0 0 0 0 0 0 0 0 0 0 0 0 0 0 0 0 0 0 0 0 0 0 0 0 0 0 0 0 0 0 0 0 0 0 0 0 0 0 0 0 0
0 0 0 0 0 0 0 0 0 0 0 0 0 0 0 0 0 0 0 0 0 0 0 0 0 0 0 0 0 0 0 0 0 0 0 0 0 0 0 0 0 0 0
0 0 0 0 0 0 0 0 -0 0 0 0 0 0 0 0 0 0 0 0 0 0 0 0 0 0 0 0 0 0 0 0 0 0 0 0 0 0 0 0 0 0 0
0 0 0 0 0 0 0 0 -0 0 0 0 0 0 0 0 0 0 0 0 0 0 0 0 0 0 0 0 0 0 0 0 0 0 0 0 0 0 0 0 0 0 0
0 0 0 0 0 0 0 0 -0 -0 -0 -0 0 0 0 0 0 -0 0 0 0 0 0 0 0 0 0 0 0 0 0 0 0 0 0 0 0 0 0 0 0 0 0
0 0 0 0 0 0 0 0 -0 -0 -0 -0 -0 0 0 0 0 0 0 0 0 0 0 0 0 0 0 0 0 0 0 0 0 0 0 0 0 0 0 0 0 0 0
Wind_Speed_500mb
13 17 19 21 19 18 22 16 16 20 18 14 12 14 16 17 18 18 14 11 11 11 18 24 21 21 33 23 13 10 15 28 25 21 30 15 16 18 28 28 26 18 14
26 24 26 29 23 18 20 17 18 19 23 18 15 17 18 20 21 20 17 12 15 20 26 29 28 34 23 16 8 9 17 34 30 27 29 15 14 15 39 30 22 12 19
22 24 26 28 26 23 23 23 19 21 22 25 21 20 21 22 21 20 19 19 19 23 27 29 32 32 22 14 11 11 25 33 33 29 22 11 13 33 31 21 18 15 18
20 23 24 23 23 22 25 23 26 24 25 28 26 25 24 24 24 23 22 25 27 26 28 29 31 24 20 15 11 21 30 35 33 28 18 9 18 29 27 25 26 19 13
28 30 32 31 27 25 25 25 25 21 32 29 31 30 26 26 25 27 27 31 34 32 30 24 26 24 20 17 19 30 32 32 30 24 20 14 16 19 25 20 18 14 9
35 39 37 33 32 29 27 27 27 23 23 29 34 40 34 30 27 29 31 33 36 36 30 26 29 26 21 25 27 27 30 26 24 23 19 15 13 11 13 21 8 12 6
37 39 38 35 32 31 30 29 28 25 24 30 37 34 34 37 31 29 32 37 41 34 29 33 29 26 28 32 28 21 23 20 18 14 18 13 13 19 15 17 13 10 9
37 36 37 37 34 32 31 30 29 24 22 25 35 42 40 42 39 28 32 40 46 43 33 36 35 29 34 32 31 27 22 19 18 19 18 13 14 18 15 15 11 9 10
36 34 31 33 34 32 32 31 30 28 26 25 23 32 46 40 41 27 19 36 50 49 39 39 44 37 37 35 34 28 25 21 18 16 16 15 15 11 8 8 9 9 10
34 31 31 30 31 32 31 31 30 29 29 35 29 29 35 51 48 36 34 52 56 55 44 44 48 41 38 36 31 26 23 20 14 12 14 17 16 7 7 6 8 8 12
32 33 33 32 31 32 33 32 33 30 32 33 32 23 33 39 55 52 53 61 46 49 47 37 46 44 37 35 28 24 21 19 15 13 16 22 17 7 5 4 9 13 15
27 31 34 36 35 33 33 34 36 33 30 32 26 41 28 32 36 43 49 57 32 36 37 39 41 41 40 40 31 25 22 18 14 12 9 15 16 8 4 7 14 14 13
30 33 35 39 38 36 35 34 35 36 33 32 28 35 37 41 39 39 36 32 30 47 35 31 33 45 42 38 31 23 21 18 14 12 10 16 8 8 9 13 13 10 13
30 30 35 41 41 38 37 37 37 36 33 32 38 40 47 37 57 48 41 35 27 39 26 24 31 44 39 34 30 25 22 17 14 12 13 14 11 12 14 12 6 10 8
30 29 33 40 42 40 38 37 37 37 35 33 35 53 38 39 62 48 56 48 37 32 42 39 44 46 41 38 33 25 22 18 17 14 14 14 13 12 11 9 6 7 11
37 34 35 41 42 42 42 38 39 36 35 31 33 35 53 42 41 35 55 57 58 28 44 48 52 52 39 45 36 29 23 20 17 15 13 12 10 8 6 4 4 7 12
38 36 35 40 43 41 41 39 38 38 36 32 32 37 35 38 38 38 45 61 62 39 36 64 60 58 48 50 44 41 30 21 16 15 14 13 9 5 2 2 7 11 14
32 33 34 40 43 44 42 40 38 36 34 32 30 32 32 32 32 40 43 40 57 62 31 32 38 43 57 52 47 41 35 26 19 13 10 8 5 2 4 4 7 10 7
28 30 34 39 43 44 41 38 36 33 30 33 25 27 29 35 27 28 33 41 56 56 39 23 21 42 51 53 40 45 37 25 15 11 9 8 4 0 6 9 10 12 10
24 29 33 37 42 44 40 36 34 32 25 27 24 21 24 30 29 28 36 39 58 49 44 40 24 31 38 46 39 36 28 22 20 15 15 7 8 7 8 11 14 10 11
24 27 31 36 39 41 38 36 30 23 23 21 25 22 25 26 30 34 36 42 51 57 54 44 46 41 41 47 40 32 25 24 22 18 11 8 11 16 3 12 12 9 11
22 24 29 35 39 36 34 31 33 25 16 12 15 18 24 26 31 36 39 39 47 51 39 43 46 54 48 53 52 42 25 20 21 17 12 9 10 9 13 14 14 16 14
18 23 29 33 34 32 31 28 24 19 8 1 14 18 20 26 30 34 33 38 50 65 58 50 51 52 62 57 56 29 17 12 24 18 16 15 17 14 15 15 17 16 17
16 21 26 30 30 27 26 26 24 17 1 1 12 17 15 23 22 29 41 41 53 57 67 57 49 58 61 61 54 39 21 16 18 14 19 22 19 19 18 17 15 15 18
16 19 23 26 27 24 24 23 20 11 4 4 11 16 15 13 15 33 40 46 54 55 64 65 61 61 58 61 56 54 30 18 15 13 20 25 23 19 18 18 15 18 23
16 18 19 23 23 23 23 20 17 9 1 3 13 15 11 5 8 24 18 41 53 56 60 66 59 66 58 60 60 49 47 29 21 16 10 11 17 20 22 22 21 24 24
Wind_Direction_500mb
323 339 333 313 317 295 317 279 258 262 242 242 246 242 226 216 209 207 214 236 232 184 167 158 150 162 150 145 131 152 160 163 142 124 126 110 84 83 112 102 98 87 74
342 335 328 312 315 306 297 314 266 254 257 240 238 239 233 225 218 216 213 221 202 171 161 156 155 155 159 142 170 164 141 161 158 134 133 103 67 65 123 108 92 70 81
340 344 342 333 315 323 314 293 282 254 252 248 236 239 230 227 228 224 218 195 181 170 166 163 163 173 170 166 182 189 153 152 158 152 141 101 87 97 106 89 103 75 66
337 343 341 337 324 309 302 313 292 265 247 251 239 234 234 225 226 226 216 192 183 177 169 166 174 176 179 180 200 168 152 143 149 151 143 114 106 122 117 105 123 128 101
333 332 329 325 321 312 302 290 292 291 246 240 243 236 223 230 223 227 217 192 196 186 178 186 197 185 183 190 166 160 156 153 157 147 152 119 94 135 145 139 148 159 127
328 325 323 318 311 305 300 296 290 275 272 246 240 234 219 215 226 218 217 198 185 180 186 203 204 189 186 166 154 155 173 175 174 178 187 189 183 147 124 151 154 173 217
323 321 320 318 313 306 296 289 287 294 282 258 243 234 228 216 206 217 216 207 202 205 225 202 189 173 165 163 171 172 175 168 171 175 160 157 145 118 123 135 128 119 97
323 322 320 320 317 310 303 293 284 278 276 269 257 242 233 219 216 206 215 218 211 212 201 190 177 169 165 165 165 164 159 150 132 131 134 127 112 114 104 105 105 95 79
328 328 326 321 317 313 307 301 292 276 271 268 265 254 232 228 213 216 242 227 221 216 200 183 174 179 178 176 173 173 164 154 135 127 124 125 116 109 84 86 84 79 74
330 332 333 328 319 312 304 298 293 280 267 263 263 259 256 233 220 218 246 233 234 212 203 183 178 183 187 186 185 185 174 164 160 147 146 146 149 146 30 77 82 77 88
326 333 333 331 325 315 308 299 294 286 263 261 261 242 252 245 237 240 238 224 242 177 178 183 184 186 189 186 176 167 175 176 164 151 149 148 179 252 318 76 94 95 90
325 327 330 333 329 322 310 299 292 287 278 260 268 237 237 226 234 231 226 229 237 247 200 184 185 190 193 187 176 173 176 182 175 180 169 181 206 235 150 107 105 95 58
331 332 336 335 330 324 315 305 292 287 279 271 253 254 227 214 218 219 214 217 218 167 179 182 186 195 203 198 181 182 184 188 184 184 177 172 166 149 120 113 101 73 358
330 329 332 334 329 323 315 308 299 288 279 269 258 253 237 217 216 218 217 220 227 234 204 191 205 197 190 182 193 190 192 186 179 168 164 161 142 141 131 127 89 5 41
310 316 323 330 326 320 317 307 298 290 283 268 259 240 252 230 240 228 223 216 221 232 220 207 206 196 190 187 188 189 187 181 166 146 145 146 145 141 147 179 239 286 302
296 306 316 328 328 321 319 311 300 293 284 271 263 252 240 246 243 229 230 229 230 224 214 216 205 198 191 182 176 182 175 170 158 141 140 143 144 146 166 221 289 328 325
284 296 311 322 323 324 319 314 302 293 289 276 261 254 258 241 242 243 249 226 217 225 219 202 205 202 201 177 183 173 163 162 152 140 134 131 136 143 182 309 0 338 341
281 294 307 319 323 322 319 315 307 296 289 279 264 252 252 261 246 245 247 239 220 221 229 224 207 202 181 177 177 173 168 167 160 155 143 136 150 168 282 331 313 318 332
288 291 304 317 319 320 320 316 312 301 289 277 254 247 247 247 254 244 233 237 214 220 214 221 197 201 181 180 178 179 167 161 169 169 179 186 197 324 312 322 323 304 300
292 295 307 315 320 322 322 319 316 306 290 277 251 239 246 251 248 243 231 226 205 209 210 201 195 190 204 184 182 177 166 179 187 186 196 188 224 279 298 320 311 308 302
299 301 308 318 323 323 326 321 319 308 284 270 258 243 244 251 259 248 237 222 224 201 205 202 201 191 194 202 175 174 190 199 198 192 204 232 263 254 236 294 296 299 309
304 302 315 323 326 329 329 327 327 326 301 271 268 256 251 243 250 244 242 229 214 213 214 209 205 187 193 205 185 180 164 172 192 186 217 240 240 227 272 263 280 302 315
312 309 320 326 329 335 333 331 326 322 313 308 270 263 254 252 256 250 239 235 214 214 218 223 214 215 205 203 193 175 159 174 183 186 211 225 230 240 234 246 259 296 325
312 310 320 332 336 337 338 342 337 343 4 348 287 289 271 252 271 277 244 239 216 210 217 218 219 211 209 199 186 192 182 179 179 181 212 215 220 235 242 248 263 295 314
319 314 326 339 341 345 345 353 344 342 352 30 288 304 293 266 275 315 259 239 216 209 217 213 217 213 217 208 203 200 202 199 201 199 198 213 224 234 244 248 269 292 298
320 321 335 344 346 349 350 359 359 333 231 311 308 317 302 302 297 320 240 214 203 208 214 211 218 210 213 215 208 210 214 203 209 208 186 196 233 243 253 268 281 297 288
Wind_Speed_850mb
13 17 19 21 19 18 22 16 16 20 18 14 12 14 16 17 18 18 14 11 11 11 18 24 21 21 33 23 13 10 15 28 25 21 30 15 16 18 28 28 26 18 14
26 24 26 29 23 18 20 17 18 19 23 18 15 17 18 20 21 20 17 12 15 20 26 29 28 34 23 16 8 9 17 34 30 27 29 15 14 15 39 30 22 12 19
22 24 26 28 26 23 23 23 19 21 22 25 21 20 21 22 21 20 19 19 19 23 27 29 32 32 22 14 11 11 25 33 33 29 22 11 13 33 31 21 18 15 18
20 23 24 23 23 22 25 23 26 24 25 28 26 25 24 24 24 23 22 25 27 26 28 29 31 24 20 15 11 21 30 35 33 28 18 9 18 29 27 25 26 19 13
28 30 32 31 27 25 25 25 25 21 32 29 31 30 26 26 25 27 27 31 34 32 30 24 26 24 20 17 19 30 32 32 30 24 20 14 16 19 25 20 18 14 9
35 39 37 33 32 29 27 27 27 23 23 29 34 40 34 30 27 29 31 33 36 36 30 26 29 26 21 25 27 27 30 26 24 23 19 15 13 11 13 21 8 12 6
37 39 38 35 32 31 30 29 28 25 24 30 37 34 34 37 31 29 32 37 41 34 29 33 29 26 28 32 28 21 23 20 18 14 18 13 13 19 15 17 13 10 9
37 36 37 37 34 32 31 30 29 24 22 25 35 42 40 42 39 28 32 40 46 43 33 36 35 29 34 32 31 27 22 19 18 19 18 13 14 18 15 15 11 9 10
36 34 31 33 34 32 32 31 30 28 26 25 23 32 46 40 41 27 19 36 50 49 39 39 44 37 37 35 34 28 25 21 18 16 16 15 15 11 8 8 9 9 10
34 31 31 30 31 32 31 31 30 29 29 35 29 29 35 51 48 36 34 52 56 55 44 44 48 41 38 36 31 26 23 20 14 12 14 17 16 7 7 6 8 8 12
32 33 33 32 31 32 33 32 33 30 32 33 32 23 33 39 55 52 53 61 46 49 47 37 46 44 37 35 28 24 21 19 15 13 16 22 17 7 5 4 9 13 15
27 31 34 36 35 33 33 34 36 33 30 32 26 41 28 32 36 43 49 57 32 36 37 39 41 41 40 40 31 25 22 18 14 12 9 15 16 8 4 7 14 14 13
30 33 35 39 38 36 35 34 35 36 33 32 28 35 37 41 39 39 36 32 30 47 35 31 33 45 42 38 31 23 21 18 14 12 10 16 8 8 9 13 13 10 13
30 30 35 41 41 38 37 37 37 36 33 32 38 40 47 37 57 48 41 35 27 39 26 24 31 44 39 34 30 25 22 17 14 12 13 14 11 12 14 12 6 10 8
30 29 33 40 42 40 38 37 37 37 35 33 35 53 38 39 62 48 56 48 37 32 42 39 44 46 41 38 33 25 22 18 17 14 14 14 13 12 11 9 6 7 11
37 34 35 41 42 42 42 38 39 36 35 31 33 35 53 42 41 35 55 57 58 28 44 48 52 52 39 45 36 29 23 20 17 15 13 12 10 8 6 4 4 7 12
38 36 35 40 43 41 41 39 38 38 36 32 32 37 35 38 38 38 45 61 62 39 36 64 60 58 48 50 44 41 30 21 16 15 14 13 9 5 2 2 7 11 14
32 33 34 40 43 44 42 40 38 36 34 32 30 32 32 32 32 40 43 40 57 62 31 32 38 43 57 52 47 41 35 26 19 13 10 8 5 2 4 4 7 10 7
28 30 34 39 43 44 41 38 36 33 30 33 25 27 29 35 27 28 33 41 56 56 39 23 21 42 51 53 40 45 37 25 15 11 9 8 4 0 6 9 10 12 10
24 29 33 37 42 44 40 36 34 32 25 27 24 21 24 30 29 28 36 39 58 49 44 40 24 31 38 46 39 36 28 22 20 15 15 7 8 7 8 11 14 10 11
24 27 31 36 39 41 38 36 30 23 23 21 25 22 25 26 30 34 36 42 51 57 54 44 46 41 41 47 40 32 25 24 22 18 11 8 11 16 3 12 12 9 11
22 24 29 35 39 36 34 31 33 25 16 12 15 18 24 26 31 36 39 39 47 51 39 43 46 54 48 53 52 42 25 20 21 17 12 9 10 9 13 14 14 16 14
18 23 29 33 34 32 31 28 24 19 8 1 14 18 20 26 30 34 33 38 50 65 58 50 51 52 62 57 56 29 17 12 24 18 16 15 17 14 15 15 17 16 17
16 21 26 30 30 27 26 26 24 17 1 1 12 17 15 23 22 29 41 41 53 57 67 57 49 58 61 61 54 39 21 16 18 14 19 22 19 19 18 17 15 15 18
16 19 23 26 27 24 24 23 20 11 4 4 11 16 15 13 15 33 40 46 54 55 64 65 61 61 58 61 56 54 30 18 15 13 20 25 23 19 18 18 15 18 23
16 18 19 23 23 23 23 20 17 9 1 3 13 15 11 5 8 24 18 41 53 56 60 66 59 66 58 60 60 49 47 29 21 16 10 11 17 20 22 22 21 24 24
Wind_Direction_850mb
323 339 333 313 317 295 317 279 258 262 242 242 246 242 226 216 209 207 214 236 232 184 167 158 150 162 150 145 131 152 160 163 142 124 126 110 84 83 112 102 98 87 74
342 335 328 312 315 306 297 314 266 254 257 240 238 239 233 225 218 216 213 221 202 171 161 156 155 155 159 142 170 164 141 161 158 134 133 103 67 65 123 108 92 70 81
340 344 342 333 315 323 314 293 282 254 252 248 236 239 230 227 228 224 218 195 181 170 166 163 163 173 170 166 182 189 153 152 158 152 141 101 87 97 106 89 103 75 66
337 343 341 337 324 309 302 313 292 265 247 251 239 234 234 225 226 226 216 192 183 177 169 166 174 176 179 180 200 168 152 143 149 151 143 114 106 122 117 105 123 128 101
333 332 329 325 321 312 302 290 292 291 246 240 243 236 223 230 223 227 217 192 196 186 178 186 197 185 183 190 166 160 156 153 157 147 152 119 94 135 145 139 148 159 127
328 325 323 318 311 305 300 296 290 275 272 246 240 234 219 215 226 218 217 198 185 180 186 203 204 189 186 166 154 155 173 175 174 178 187 189 183 147 124 151 154 173 217
323 321 320 318 313 306 296 289 287 294 282 258 243 234 228 216 206 217 216 207 202 205 225 202 189 173 165 163 171 172 175 168 171 175 160 157 145 118 123 135 128 119 97
323 322 320 320 317 310 303 293 284 278 276 269 257 242 233 219 216 206 215 218 211 212 201 190 177 169 165 165 165 164 159 150 132 131 134 127 112 114 104 105 105 95 79
328 328 326 321 317 313 307 301 292 276 271 268 265 254 232 228 213 216 242 227 221 216 200 183 174 179 178 176 173 173 164 154 135 127 124 125 116 109 84 86 84 79 74
330 332 333 328 319 312 304 298 293 280 267 263 263 259 256 233 220 218 246 233 234 212 203 183 178 183 187 186 185 185 174 164 160 147 146 146 149 146 30 77 82 77 88
326 333 333 331 325 315 308 299 294 286 263 261 261 242 252 245 237 240 238 224 242 177 178 183 184 186 189 186 176 167 175 176 164 151 149 148 179 252 318 76 94 95 90
325 327 330 333 329 322 310 299 292 287 278 260 268 237 237 226 234 231 226 229 237 247 200 184 185 190 193 187 176 173 176 182 175 180 169 181 206 235 150 107 105 95 58
331 332 336 335 330 324 315 305 292 287 279 271 253 254 227 214 218 219 214 217 218 167 179 182 186 195 203 198 181 182 184 188 184 184 177 172 166 149 120 113 101 73 358
330 329 332 334 329 323 315 308 299 288 279 269 258 253 237 217 216 218 217 220 227 234 204 191 205 197 190 182 193 190 192 186 179 168 164 161 142 141 131 127 89 5 41
310 316 323 330 326 320 317 307 298 290 283 268 259 240 252 230 240 228 223 216 221 232 220 207 206 196 190 187 188 189 187 181 166 146 145 146 145 141 147 179 239 286 302
296 306 316 328 328 321 319 311 300 293 284 271 263 252 240 246 243 229 230 229 230 224 214 216 205 198 191 182 176 182 175 170 158 141 140 143 144 146 166 221 289 328 325
284 296 311 322 323 324 319 314 302 293 289 276 261 254 258 241 242 243 249 226 217 225 219 202 205 202 201 177 183 173 163 162 152 140 134 131 136 143 182 309 0 338 341
281 294 307 319 323 322 319 315 307 296 289 279 264 252 252 261 246 245 247 239 220 221 229 224 207 202 181 177 177 173 168 167 160 155 143 136 150 168 282 331 313 318 332
288 291 304 317 319 320 320 316 312 301 289 277 254 247 247 247 254 244 233 237 214 220 214 221 197 201 181 180 178 179 167 161 169 169 179 186 197 324 312 322 323 304 300
292 295 307 315 320 322 322 319 316 306 290 277 251 239 246 251 248 243 231 226 205 209 210 201 195 190 204 184 182 177 166 179 187 186 196 188 224 279 298 320 311 308 302
299 301 308 318 323 323 326 321 319 308 284 270 258 243 244 251 259 248 237 222 224 201 205 202 201 191 194 202 175 174 190 199 198 192 204 232 263 254 236 294 296 299 309
304 302 315 323 326 329 329 327 327 326 301 271 268 256 251 243 250 244 242 229 214 213 214 209 205 187 193 205 185 180 164 172 192 186 217 240 240 227 272 263 280 302 315
312 309 320 326 329 335 333 331 326 322 313 308 270 263 254 252 256 250 239 235 214 214 218 223 214 215 205 203 193 175 159 174 183 186 211 225 230 240 234 246 259 296 325
312 310 320 332 336 337 338 342 337 343 4 348 287 289 271 252 271 277 244 239 216 210 217 218 219 211 209 199 186 192 182 179 179 181 212 215 220 235 242 248 263 295 314
319 314 326 339 341 345 345 353 344 342 352 30 288 304 293 266 275 315 259 239 216 209 217 213 217 213 217 208 203 200 202 199 201 199 198 213 224 234 244 248 269 292 298
320 321 335 344 346 349 350 359 359 333 231 311 308 317 302 302 297 320 240 214 203 208 214 211 218 210 213 215 208 210 214 203 209 208 186 196 233 243 253 268 281 297 288